Location: Fort Worth, Tx
(32.7431°N, 97.3695°W)
Time: 16:51:04
(UTC-04:00)

A-11 Canister half - Pass Details

Date: 28 February 2024
Orbit: 1525 x 1683 km, 47.3° (Epoch: 21 April)

Event Time Altitude Azimuth Distance (km) Brightness Sun altitude
Rises 22:06:51 0° 258° (WSW) 4,794 12.4 -34.5°
Reaches altitude 10° 22:10:11 10° 265° (W) 3,788 11.8 -35.1°
Maximum altitude 22:19:17 46° 337° (NNW) 1,985 9.6 -37.0°
Enters shadow 22:22:01 38° 16° (NNE) 2,201 9.7 -37.5°
